Flag for Cuba Weather past 2 weeks in Holguín, Cuba

Now
70 °F

Passing clouds.


Feels Like: 70 °F
Forecast: 73 / 90 °F
Wind: 1 mph from North

Location: Holguin Civ / Mil

Current Time: Sep 3, 2014 at 1:12:04 AM

Latest Report: Sep 2, 2014 at 11:50 PM


Visibility: N/A

Pressure: 29.95 "Hg

Humidity: 100%

Dew point: 70 °F

Location of HolguínLocation

Historic Weather in Holguín — Graph

°F

Holguín temperature yesterday

Maximum temperature yesterday: 91 °F (at 1:50 PM)
Minimum temperature yesterday: 70 °F (at 10:50 PM)
Average temperature yesterday: 78 °F

Past Weeks' High & Low Weather Summary

 TemperatureHumidityPressure
High95 °F (Aug 19, 2:51 PM)100% (Aug 28, 6:02 AM)30.07 "Hg (Aug 28, 6:02 AM)
Low59 °F (Aug 26, 5:50 PM)39% (Aug 19, 2:51 PM)29.71 "Hg (Aug 24, 2:51 PM)
Average82 °F75%29.94 "Hg
* Reported Aug 18 11:50 PM — Sep 2 11:50 PM, Holguín, Weather by CustomWeather, © 2014

Note: Actual official high and low records may vary slightly from our data, if they occured in-between our weather recording intervals... More about our weather records

Advertising

Holguín weather history for previous 24 hours

 ConditionsComfort  
Time TempWeatherWind HumidityBarometerVisibility
11:50 PM
Sep 2
70 °FPassing clouds.1 mph100%29.95 "HgN/A
10:50 PM70 °FPassing clouds.6 mph100%29.95 "HgN/A
9:51 PM72 °FOvercast.6 mph100%29.95 "HgN/A
8:51 PM72 °FLight rain. Mostly cloudy.3 mph94%N/A6 mi
7:51 PM72 °FThunderstorms. More clouds than sun.8 mph94%30.01 "Hg5 mi
6:51 PM81 °FLight rain. More clouds than sun.7 mph66%N/A6 mi
5:51 PM84 °FBroken clouds.12 mph66%29.95 "HgN/A
4:51 PM84 °FBroken clouds.9 mph66%29.89 "HgN/A
3:52 PM88 °FScattered clouds.13 mph55%29.92 "HgN/A
2:50 PM88 °FPartly sunny.12 mph59%29.95 "HgN/A
1:50 PM91 °FScattered clouds.8 mph49%29.95 "HgN/A
12:50 PM90 °FScattered clouds.10 mph55%29.95 "HgN/A
11:50 AM88 °FScattered clouds.14 mph62%29.98 "HgN/A
10:50 AM84 °FScattered clouds.13 mph74%29.98 "HgN/A
9:51 AM82 °FScattered clouds.9 mph74%30.01 "HgN/A
8:51 AM77 °FScattered clouds.9 mph94%30.01 "HgN/A
7:50 AM75 °FScattered clouds.5 mph100%29.98 "Hg6 mi
6:51 AM72 °FPassing clouds.2 mph100%29.98 "Hg6 mi
5:50 AM73 °FFog.1 mph94%29.95 "Hg4 mi
4:51 AM73 °FFog.2 mph94%29.95 "Hg4 mi
3:50 AM73 °FFog.6 mph89%29.95 "Hg4 mi
2:50 AM73 °FFog.3 mph89%29.98 "Hg4 mi
1:50 AM75 °FFog.6 mph94%29.98 "Hg5 mi
Weather by CustomWeather, © 2014

See weather overviewHow to use our weather pages